{"data":{"norad_id":60531,"epoch":"2026-05-25T04:00:28.590912Z","epoch_age_seconds":57844,"freshness":"FRESH","line1":"1 60531U 24149BR  26145.16699758  .00002932  00000+0  24896-3 0  9991","line2":"2 60531  97.6839 221.7631 0002946  85.9605 274.1954 14.98667501 96605","mean_motion":14.98667501,"eccentricity":0.0002946,"inclination_deg":97.6839,"raan_deg":221.7631,"arg_perigee_deg":85.9605,"mean_anomaly_deg":274.1954,"bstar":0.00024896,"rev_number":9660,"period_min":96.08535576031,"perigee_km":568.96517340346,"apogee_km":573.0596122257,"semimajor_km":6949.1493928146,"source":"CELESTRAK","updated_at":"2026-05-25T13:38:02.144548Z"}}